Regional Weather Roundup
Issued by NWS Cleveland, OH

Home | Current Version | Previous Version | Text Only | Print | Product List | Glossary Off
Versions: 1 2 3 4 5 6 7 8 9 10 11 12 13 14 15 16 17 18 19 20 21 22 23 24 25 26 27 28 29 30 31 32 33 34 35 36 37 38 39 40 41 42 43 44 45 46 47 48 49 50

000
ASUS41 KCLE 260202
RWRCLE
OHIO REGIONAL WEATHER ROUNDUP
NATIONAL WEATHER SERVICE CLEVELAND, OH
900 PM EST THU DEC 25 2014

NOTE: "FAIR" INDICATES FEW OR NO CLOUDS BELOW 12,000 FEET WITH NO
SIGNIFICANT WEATHER AND/OR OBSTRUCTIONS TO VISIBILITY.

OHZ001>008-015>018-024>027-034-035-043-044-260300-
   NORTHWEST OHIO

CITY           SKY/WX    TMP DP  RH WIND       PRES   REMARKS
DEFIANCE       CLEAR     35  30  82 S6        30.13F
FINDLAY        CLEAR     33  29  85 S9        30.15F WCI  25
TOLEDO EXPRESS CLEAR     35  29  78 S6        30.13F
TOLEDO EXEC    CLEAR     35  29  78 S8        30.15F WCI  29
LIMA           CLEAR     37  30  75 S8        30.14F
$$

OHZ009>014-019>023-028>033-038-089-260300-
   NORTHEAST OHIO

CITY           SKY/WX    TMP DP  RH WIND       PRES   REMARKS
CLE-HOPKINS    CLOUDY    38  30  73 SW8       30.20R
CLE-LAKEFRONT  CLOUDY    40  30  67 SW15      30.18R
CUY CO. ARPT   NOT AVBL
LORAIN-ELYRIA  CLOUDY    37  31  78 W10       30.19R
ASHTABULA      CLOUDY    37  29  72 W8        30.16R
AKRON-CANTON   CLOUDY    38  29  70 SW14G20   30.18R
WOOSTER        CLOUDY    37  30  75 SW9       30.19R
MANSFIELD      CLOUDY    36  30  79 SW10      30.17R
YOUNGSTOWN     CLOUDY    37  29  72 SW8       30.17R
$$

OHZ042-051>053-060>062-070>072-077>081-260300-
  SOUTHWEST OHIO

CITY           SKY/WX    TMP DP  RH WIND       PRES   REMARKS
CINC-COVINGTON PTCLDY    33  27  78 S7        30.19S WCI  27
CINC-LUNKEN    CLEAR     31  31 100 CALM      30.23S
HAMILTON       CLEAR     34  30  85 S5        30.21S WCI  30
DAYTON         CLEAR     35  30  82 S7        30.18F WCI  29
WRIGHT-PAT AFB CLEAR     34  30  84 SE7       30.18F WCI  28
DAYTON GENERAL CLEAR     34  30  85 S8        30.18S WCI  27
WILMINGTON     CLEAR     33  29  85 S5        30.20S WCI  29
$$

OHZ036-037-039>041-045>050-054>059-063>069-073>076-082>088-260300-
  CENTRAL AND SOUTHEAST OHIO

CITY           SKY/WX    TMP DP  RH WIND       PRES   REMARKS
COLUMBUS       CLOUDY    38  30  73 SW6       30.21S
OSU AIRPORT    CLOUDY    38  30  73 SW9       30.20S
BOLTON FIELD   CLOUDY    36  31  83 S6        30.21S
RICKENBACK AFB CLOUDY    37  31  79 S5        30.21F
NEWARK         CLOUDY    39  31  72 SW10      30.21S
MARION         CLOUDY    37  30  75 S7        30.19R
LANCASTER      CLOUDY    39  31  72 S3        30.22F
ZANESVILLE     CLOUDY    38  30  73 S7        30.22R
NEW PHILLY     CLOUDY    39  30  70 S5        30.22S
$$


USA.gov is the U.S. government's official web portal to all federal, state and local government web resources and services.